Погода в Куре

Погода в Куре : погода сейчас, прогноз погоды и архив. Всё, что Вы хотите узнать о погоде в Куре!

Поиск расширенной информации на нашем сайте:

Другие новости

Новости СМИ2

Главная страница сайта

Новости сайта

03.07.2017

Напоминаем, что на нашем специализированном сайте Метеоцентр.Азия вы можете получить высокодетализированные автоматические прогнозы погоды по пунктам России, СНГ и мира в авиационном формате (включающие направление и скорость ветра, видимость, явления погоды, количество и форму облачности, нижнюю и верхнюю границу облачности).


Погода в Куре - сегодня

Время (UTC), дата Ветер
(°,м/с) 
Видим.   Явления Облачность Т
(°С)
Тd
(°С)
f(%) Тe
(°С)
Pmin
(гПа)
dP
(гПа)
Po
(мм)
O2
(г/м3)
Тmin Tmax R s Состояние
почвы
21 21.11.17 020 (С) 1000 м  снег  10/10 300 м 
[Ns]
-14.3 -16.7 82 -14  1009.6  -2.1  730  312  -14.3    16  равномерный
сухой снег
100% 
00 22.11.17 040 (СВ) 4000 м  слаб. снег  10/0 средняя 
[As op]
-14.3 -16.7 82 -14  1009.6  -1.7  728  311  -14.3         
03 22.11.17 050 (СВ) 10 км  {снег}  10/0 средняя 
[As trans]
-11.3 -15.7 70 -11  1004.1  -3.2  726  306           
06 22.11.17 тихо ()   10 км  слаб. снег  10/0 средняя 
[As trans]
-9.4 -12.9 76 -9  1004.1  0.3  726  304           
09 22.11.17 тихо ()   10 км  слаб. снег  10/0 средняя 
[As trans]
-10.8 -12.7 86 -11  1005.6  1.3  727  306    -9.2  0.6     
12 22.11.17 тихо ()   10 км  слаб. снег  10/0 средняя 
[As op]
-12.2 -14.1 86 -12  1007  1.1  728  308           
15 22.11.17 тихо ()   20000 м  {снег}  ясно 
-16.9 -19.1 83 -17  1008.4  1.1  728  314           
18 22.11.17 тихо ()   10 км  слаб. снег  10/0 средняя 
[As op]
-16.1 -18.2 84 -16  1008.8  0.5  729  313           
21 22.11.17 тихо ()   20000 м  {снег}  5/0 средняя 
[Ac As]
-17.9 -20.2 82 -18  1009.4  0.3  729  316  -18.3    0.3  16  равномерный
сухой снег
100% 
00 23.11.17 тихо ()   20000 м  {снег}  8/0 средняя 
[Ac As]
-17.7 -20.7 77 -18  1010.7  1.3  730  316           
03 23.11.17 тихо ()   20000 м  в посл. час ливневой снег  8/5 600 м средняя 
[Cu med, cong|Ac cast]
-12.4 -17.1 68 -12  1008.9  -1  729  309           
06 23.11.17 210 (ЮЗ) 20000 м  {ливн. осадки}  5/0 верхняя 
[Cc]
-10 -18.7 49 -10  1008.4  -1  729  306           
09 23.11.17 тихо ()   20000 м    3/0 средняя, верхняя 
[Ac lent|Ci]
-16.7 -19.3 80 -17  1010.9  1.4  730  315    -9.5       
12 23.11.17 тихо ()   20000 м    ясно 
-18.3 -20.4 84 -18  1011.5  0.4  731  317           
15 23.11.17 тихо ()   20000 м    ясно 
-21.6 -24 81 -22  1011.4  -0.6  730  321           
18 23.11.17 тихо ()   н/о    н/о 
-24.8 -27.4 79 -25  1011.8  -0.1  730  325           
21 23.11.17 тихо ()   10 км  слаб. снег  8/0 верхняя 
[Cs]
-26 -28.8 77 -26  1011.3  -0.7  729  327  -26    0.0  12  равномерный
сухой снег
100% 
00 24.11.17 тихо ()   10 км  слаб. снег  9/0 верхняя 
[Cc]
-23.3 -26.1 78 -23  1010.9  0.1  730  323  -26.1         
03 24.11.17 180 (Ю) 20000 м  {снег}  8/0 средняя, верхняя 
[Ac As|Ci sp]
-16.6 -23.6 55 -17  1009.2  -0.7  729  314           
06 24.11.17 180 (Ю) 20000 м  {снег}  3/0 средняя 
[Ac lent]
-15.7 -24.7 46 -18  1009.2  -0.1  729  313           
09 24.11.17 180 (Ю) 20000 м    ясно 
-20 -25.2 63 -20  1011.5  1.6  730  319    -14.6  0.0     
12 24.11.17 180 (Ю) 20000 м    ясно 
-22.2 -26.4 69 -25  1012.2  0.4  731  322           
15 24.11.17 180 (Ю) 20000 м    ясно 
-25.4 -28.5 75 -26  1012.4  -0.2  730  326           
18 24.11.17 190 (Ю) 20000 м    ясно 
-24.1 -28.5 67 -25  1012.6  0.4  731  325           
21 24.11.17 360 (С) 20000 м    ясно 
-29.7 -33.2 72 -30  1013.8  0.3  731  332  -29.7      11  равномерный
сухой снег
100% 
Время (UTC), дата Ветер
(°,м/с) 
Видим.   Явления Облачность Т
(°С)
Тd
(°С)
f(%) Тe
(°С)
Pmin
(гПа)
dP
(гПа)
Po
(мм)
O2
(г/м3)
Тmin Tmax R s Состояние
почвы

Для получения пояснительной информации подведите курсор к названию столбца.

ПОГОДА в Куре - архив

Всё, что Вы хотите узнать о погоде в Куре - удобно и подробно!

Выберите нужную дату (начиная с 1 января 2015* года) и нажмите кнопку "Найти".
Будут отображены архивные сводки погоды по пункту Кур, начиная с указанной даты.


Отображать данные в формате CSV (для использования в таблицах Excel)


Внимание! Наш архив погоды предназначен исключительно для личного некоммерческого использования в познавательных целях. Если Вам необходимы официальные справки о состоянии погоды (для производственных, юридических, коммерческих и т.п. целей), обращайтесь в органы Росгидромета.

*Примечание: данная дата относится к архиву по метеостанциям СССР (Россия, СНГ, Балтия).
Архив по метеостанциям Зарубежной Европы и Азии (кроме Китая) хранится 10 дней, по другим регионам земного шара (Китай, Африка, Америка, Австралия, Океания) - 1 день.

Кур - район местоположения метеостанции


Название, широта, долгота, высота метеостанции:
Кур 49.9°ш. 134.6°д. 283 м над ур. моря [Российская Федерация]

Дополнительная информация

В oтличие oт бoльшинства пoгoдных сайтoв мы публикуем пoдрoбную метеoинфoрмацию в детальнoм прoфессиoнальнoм фoрмате.

Характеристики температуры и влажнoсти вoздуха измеряются на высoте 2 м в тени вдали oт зданий и деревьев.
Скoрoсть ветра измеряется на высoте 10 м (на урoвне рoста челoвека скoрoсть ветра ниже в 1.5-2 раза). Если метеoстанция нахoдится в гoрoде или в лесу, тo скoрoсть ветра занижена на 2-4 м/с пo сравнению с oткрытым местoм. Скoрoсть ветра над акватoриями крупных рек и oзёр, а также на вершинах хoлмoв на 2-5 м/с выше, чем в oбычных услoвиях.
Атмoсфернoе давление в разных тoчках местнoсти мoжет значительнo oтличаться oт давления на метеoстанции, в зависимoсти oт услoвий рельефа (при пoдъёме на 10 м давление пoнижается примернo на 1 мм рт.ст.).